This is the latest recevied weather packets stored in our database for station/object KG5TTF. If no packets are shown the sender has not sent any weather packets the latest 10 day(s).
| Time | Temp. | Humidity | Pressure | Rain* | Wind** | Luminosity | Snow |
|---|---|---|---|---|---|---|---|
| 1777995777 | 0.56° C | 99% | 1017.7 hPa | 0 mm | - | 78 W/m² | - |
| 1777995473 | 0.56° C | 99% | 1017.7 hPa | 0 mm | - | 90 W/m² | - |
| 1777995171 | 0.56° C | 99% | 1017.7 hPa | 0 mm | - | 79 W/m² | - |
| 1777994867 | 0.56° C | 99% | 1017.7 hPa | 0 mm | - | 57 W/m² | - |
| 1777994564 | 0.56° C | 99% | 1017.7 hPa | 0 mm | - | 69 W/m² | - |
| 1777994258 | 0.56° C | 99% | 1018 hPa | 0 mm | - | 76 W/m² | - |
| 1777993956 | 0.56° C | 99% | 1017.7 hPa | 1.27 mm | - | 54 W/m² | - |
| 1777993653 | 0.56° C | 99% | 1017.7 hPa | 1.27 mm | - | 47 W/m² | - |
| 1777993350 | 0.56° C | 99% | 1017.7 hPa | 0 mm | - | 47 W/m² | - |
| 1777993050 | 0.56° C | 99% | 1017.9 hPa | 0 mm | - | 52 W/m² | - |
| 1777992748 | 0.56° C | 99% | 1017.7 hPa | 1.78 mm | - | 51 W/m² | - |
| 1777992446 | 0.56° C | 99% | 1017.6 hPa | 1.78 mm | - | 41 W/m² | - |
| 1777992144 | 0.56° C | 99% | 1017.9 hPa | 0 mm | - | 33 W/m² | - |
| 1777991840 | 0.56° C | 99% | 1017.9 hPa | 0 mm | - | 26 W/m² | - |
| 1777991538 | 0.56° C | 99% | 1017.7 hPa | 1.27 mm | - | 40 W/m² | - |
| 1777991234 | 1.11° C | 99% | 1017.6 hPa | 1.27 mm | - | 43 W/m² | - |
| 1777990932 | 0.56° C | 99% | 1017.6 hPa | 0 mm | - | 29 W/m² | - |
| 1777990630 | 0.56° C | 98% | 1017.5 hPa | 1.78 mm | - | 43 W/m² | - |
| 1777990326 | 1.11° C | 98% | 1017.6 hPa | 1.78 mm | - | 26 W/m² | - |
| 1777990022 | 0.56° C | 98% | 1017.6 hPa | 0 mm | - | 27 W/m² | - |
| 1777989720 | 0.56° C | 98% | 1017.7 hPa | 1.27 mm | - | 17 W/m² | - |
| 1777989416 | 0.56° C | 98% | 1017.7 hPa | 1.27 mm | - | 16 W/m² | - |
| 1777989112 | 0.56° C | 98% | 1017.7 hPa | 0 mm | - | 12 W/m² | - |
| 1777988808 | 0.56° C | 98% | 1017.6 hPa | 0 mm | - | 13 W/m² | - |
| 1777988506 | 0.56° C | 98% | 1017.6 hPa | 0 mm | - | 15 W/m² | - |
* Rain latest hour (hover to see other rain measurements)
** Current wind speed in m/s (hover to see current wind gust speed)